| time (UTC) | temp C | wind direction | speed KPH | gust KPH | rain 1hr cm | rain 24hr cm | rain mn cm | humidity % | barometer mb |
| 20260506163518 | 14 | 158 | 0.0 | 0.0 | 0.00 | 0.00 | 0.00 | 79 | 993.4 |
| 20260506154454 | 15 | 158 | 0.0 | 0.0 | 0.00 | 0.00 | 0.00 | 76 | 993.8 |
| 20260506153520 | 15 | 166 | 0.0 | 4.8 | 0.00 | 0.00 | 0.00 | 75 | 993.8 |
| 20260506144454 | 16 | 112 | 0.0 | 0.0 | 0.00 | 0.00 | 0.00 | 70 | 993.8 |
| 20260506143519 | 17 | 112 | 0.0 | 0.0 | 0.00 | 0.00 | 0.00 | 69 | 993.9 |
| 20260506134453 | 16 | 135 | 0.0 | 0.0 | 0.00 | 0.00 | 0.00 | 69 | 994.4 |
| 20260506133517 | 16 | 135 | 0.0 | 0.0 | 0.00 | 0.00 | 0.00 | 67 | 994.3 |
| 20260506124452 | 17 | 338 | 0.0 | 0.0 | 0.00 | 0.00 | 0.00 | 61 | 993.7 |
| 20260506123518 | 17 | 322 | 0.0 | 0.0 | 0.00 | 0.00 | 0.00 | 60 | 993.7 |
| 20260506114453 | 17 | 2 | 0.0 | 0.0 | 0.00 | 0.00 | 0.00 | 64 | 993.9 |
| 20260506113517 | 16 | 0 | 0.0 | 0.0 | 0.00 | 0.00 | 0.00 | 63 | 993.9 |
| 20260506104453 | 19 | 354 | 0.0 | 0.0 | 0.00 | 0.00 | 0.00 | 56 | 993.6 |
| 20260506103517 | 19 | 0 | 0.0 | 0.0 | 0.00 | 0.00 | 0.00 | 58 | 993.6 |
| 20260506094452 | 18 | 90 | 0.0 | 0.0 | 0.00 | 0.00 | 0.00 | 63 | 993.9 |
| 20260506093516 | 17 | 90 | 0.0 | 0.0 | 0.00 | 0.00 | 0.00 | 63 | 993.7 |
| 20260506084454 | 20 | 68 | 0.0 | 0.0 | 0.00 | 0.00 | 0.00 | 64 | 993.6 |
| 20260506083518 | 20 | 68 | 0.0 | 0.0 | 0.00 | 0.00 | 0.00 | 64 | 993.6 |
| 20260506073516 | 15 | 22 | 0.0 | 0.0 | 0.00 | 0.00 | 0.00 | 77 | 993.7 |
| 20260506070321 | 12 | 68 | 0.0 | 0.0 | 0.00 | 0.00 | 0.00 | 84 | 993.7 |
| 20260506060321 | 10 | 112 | 0.0 | 0.0 | 0.00 | 0.00 | 0.00 | 88 | 993.3 |
| 20260506050321 | 9 | 112 | 0.0 | 0.0 | 0.00 | 0.00 | 0.00 | 87 | 993.2 |
| 20260506043517 | 10 | 112 | 0.0 | 0.0 | 0.00 | 0.00 | 0.00 | 87 | 993.1 |
| 20260506040321 | 10 | 112 | 0.0 | 0.0 | 0.00 | 0.00 | 0.00 | 87 | 993.2 |
| 20260506033516 | 9 | 112 | 0.0 | 0.0 | 0.00 | 0.00 | 0.00 | 87 | 993.3 |
| 20260506030319 | 10 | 112 | 0.0 | 0.0 | 0.00 | 0.00 | 0.00 | 87 | 993.3 |
| 20260506023515 | 10 | 112 | 0.0 | 0.0 | 0.00 | 0.00 | 0.00 | 86 | 993.0 |
| 20260506020320 | 10 | 112 | 0.0 | 0.0 | 0.00 | 0.00 | 0.00 | 86 | 993.5 |
| 20260506013517 | 10 | 112 | 0.0 | 0.0 | 0.00 | 0.00 | 0.00 | 86 | 993.6 |
| 20260506010320 | 10 | 90 | 0.0 | 0.0 | 0.00 | 0.00 | 0.00 | 86 | 993.6 |
| 20260506003515 | 10 | 90 | 0.0 | 0.0 | 0.00 | 0.00 | 0.00 | 86 | 994.0 |
| 20260506000320 | 10 | 90 | 0.0 | 0.0 | 0.00 | 0.00 | 0.00 | 86 | 994.0 |
| 20260505233516 | 10 | 90 | 0.0 | 0.0 | 0.00 | 0.00 | 0.00 | 86 | 994.1 |
| 20260505230320 | 10 | 90 | 0.0 | 0.0 | 0.00 | 0.00 | 0.00 | 86 | 994.1 |
| 20260505224339 | 10 | 90 | 0.0 | 0.0 | 0.00 | 0.00 | 0.00 | 86 | 994.1 |
| 20260505223516 | 10 | 90 | 0.0 | 0.0 | 0.00 | 0.00 | 0.00 | 86 | 994.3 |
| 20260505214338 | 10 | 90 | 0.0 | 0.0 | 0.00 | 0.00 | 0.00 | 85 | 994.3 |
| 20260505213515 | 10 | 90 | 0.0 | 0.0 | 0.00 | 0.00 | 0.00 | 85 | 994.4 |
| 20260505204339 | 11 | 79 | 0.0 | 0.0 | 0.00 | 0.00 | 0.00 | 83 | 994.2 |
| 20260505203516 | 11 | 90 | 0.0 | 0.0 | 0.00 | 0.00 | 0.00 | 83 | 994.4 |
| 20260505194338 | 12 | 112 | 0.0 | 0.0 | 0.00 | 0.00 | 0.00 | 81 | 993.9 |
| 20260505193516 | 12 | 112 | 0.0 | 0.0 | 0.00 | 0.00 | 0.00 | 81 | 993.7 |
| 20260505184339 | 13 | 112 | 0.0 | 0.0 | 0.00 | 0.00 | 0.00 | 78 | 993.6 |
| 20260505183516 | 13 | 112 | 0.0 | 0.0 | 0.00 | 0.00 | 0.00 | 77 | 993.6 |
| 20260505174338 | 14 | 112 | 0.0 | 0.0 | 0.00 | 0.00 | 0.00 | 75 | 993.5 |
| 20260505173515 | 14 | 135 | 0.0 | 0.0 | 0.00 | 0.00 | 0.00 | 75 | 993.3 |